This is the latest recevied weather packets stored in our database for station/object KI7MOQ. If no packets are shown the sender has not sent any weather packets the latest 10 day(s).
| Time | Temp. | Humidity | Pressure | Rain* | Wind** | Luminosity | Snow |
|---|---|---|---|---|---|---|---|
| 1777884337 | 15.56° C | 81% | 1010.8 hPa | 0 mm | - | 0 W/m² | - |
| 1777884033 | 15.56° C | 80% | 1010.9 hPa | 0 mm | - | 0 W/m² | - |
| 1777883732 | 16.11° C | 78% | 1010.7 hPa | 0 mm | - | 0 W/m² | - |
| 1777883428 | 16.67° C | 77% | 1010.8 hPa | 0 mm | - | 0 W/m² | - |
| 1777883124 | 16.67° C | 76% | 1010.6 hPa | 0 mm | - | 0 W/m² | - |
| 1777882821 | 16.67° C | 75% | 1010.6 hPa | 0 mm | - | 0 W/m² | - |
| 1777882518 | 16.67° C | 74% | 1010.6 hPa | 0 mm | - | 0 W/m² | - |
| 1777882213 | 17.22° C | 73% | 1010.6 hPa | 0 mm | - | 0 W/m² | - |
| 1777881910 | 17.22° C | 72% | 1010.6 hPa | 0 mm | - | 0 W/m² | - |
| 1777881607 | 17.22° C | 71% | 1010.5 hPa | 0 mm | - | 0 W/m² | - |
| 1777881303 | 17.78° C | 71% | 1010.5 hPa | 0 mm | - | 0 W/m² | - |
| 1777881000 | 17.78° C | 69% | 1010.4 hPa | 0 mm | - | 0 W/m² | - |
| 1777880699 | 18.33° C | 69% | 1010.6 hPa | 0 mm | - | 0 W/m² | - |
| 1777880396 | 18.33° C | 68% | 1010.4 hPa | 0 mm | - | 0 W/m² | - |
| 1777880095 | 18.33° C | 67% | 1010.4 hPa | 0 mm | - | 0 W/m² | - |
| 1777879793 | 18.89° C | 66% | 1010.2 hPa | 0 mm | - | 0 W/m² | - |
| 1777879490 | 18.89° C | 65% | 1010.3 hPa | 0 mm | - | 0 W/m² | - |
| 1777879187 | 18.33° C | 64% | 1010.5 hPa | 0 mm | - | 0 W/m² | - |
| 1777878884 | 18.89° C | 67% | 1010.5 hPa | 0 mm | - | 0 W/m² | - |
| 1777878581 | 18.33° C | 67% | 1010.3 hPa | 0 mm | - | 0 W/m² | - |
| 1777878277 | 18.89° C | 67% | 1010.2 hPa | 0 mm | - | 0 W/m² | - |
| 1777877973 | 18.89° C | 67% | 1010.2 hPa | 0 mm | - | 0 W/m² | - |
| 1777877670 | 18.89° C | 67% | 1010.1 hPa | 0 mm | - | 0 W/m² | - |
| 1777877367 | 19.44° C | 66% | 1010 hPa | 0 mm | - | 0 W/m² | - |
| 1777877065 | 19.44° C | 63% | 1010.1 hPa | 0 mm | - | 0 W/m² | - |
* Rain latest hour (hover to see other rain measurements)
** Current wind speed in m/s (hover to see current wind gust speed)